DW2227 Weather Reports


Display with metric or nautical units.
time (UTC)temp
F
wind
direction
speed
MPH
gust
MPH
rain 1hr
in
rain 24hr
in
rain mn
in
humidity
%
barometer
mb
20260508151329 59 162 0.0 2.0 0.01 0.26 0.11 81 1009.4
20260508150831 59 107 0.0 0.0 0.01 0.26 0.11 78 1009.5
20260508150333 59 107 0.0 1.0 0.01 0.26 0.11 81 1009.5
20260508145836 58 107 0.0 1.0 0.01 0.26 0.11 81 1009.5
20260508145356 58 107 0.0 0.0 0.01 0.26 0.11 84 1009.6
20260508144836 58 107 0.0 0.0 0.01 0.26 0.11 84 1009.5
20260508144338 58 107 0.0 1.0 0.01 0.26 0.11 84 1009.5
20260508143822 58 107 0.0 1.0 0.01 0.26 0.11 85 1009.5
20260508143324 57 107 0.0 0.0 0.01 0.26 0.11 83 1009.6
20260508142827 57 107 0.0 0.0 0.01 0.26 0.11 84 1009.7
20260508142330 57 107 0.0 1.0 0.01 0.26 0.11 83 1009.9
20260508141855 56 107 0.0 1.0 0.01 0.26 0.11 86 1009.9
20260508141318 56 107 0.0 1.0 0.00 0.25 0.10 88 1009.9
20260508140827 56 107 0.0 1.0 0.00 0.25 0.10 89 1009.9
20260508140334 55 107 0.0 1.0 0.00 0.25 0.10 89 1010.0
20260508135839 55 107 0.0 1.0 0.00 0.25 0.10 89 1010.1
20260508135319 55 107 0.0 0.0 0.00 0.25 0.10 89 1010.0
20260508134827 54 107 0.0 1.0 0.00 0.25 0.10 89 1009.9
20260508134354 54 107 0.0 1.0 0.00 0.25 0.10 89 1009.9
20260508133820 54 107 0.0 1.0 0.00 0.25 0.10 90 1009.9
20260508133326 54 107 0.0 1.0 0.00 0.25 0.10 90 1009.8
20260508132832 54 360 0.0 2.0 0.00 0.25 0.10 91 1009.8
20260508132319 53 360 0.0 2.0 0.00 0.25 0.10 92 1009.9
20260508131822 53 360 0.0 0.0 0.00 0.25 0.10 92 1009.9
20260508131326 52 360 0.0 1.0 0.00 0.25 0.10 92 1009.9
20260508130829 52 360 0.0 0.0 0.00 0.25 0.10 92 1010.0
20260508130331 52 360 0.0 1.0 0.00 0.25 0.10 92 1010.0
20260508125834 52 360 0.0 1.0 0.00 0.25 0.10 92 1009.9
20260508125337 51 360 0.0 1.0 0.00 0.25 0.10 92 1009.9
20260508124821 51 360 0.0 1.0 0.00 0.25 0.10 92 1009.9
20260508124323 50 360 0.0 2.0 0.00 0.25 0.10 92 1009.8
20260508123842 50 360 1.0 2.0 0.00 0.25 0.10 92 1009.8
20260508123342 49 360 0.0 0.0 0.00 0.25 0.10 92 1009.9
20260508122824 48 360 0.0 1.0 0.00 0.25 0.10 92 1009.9
20260508122326 48 360 0.0 1.0 0.00 0.25 0.10 92 1009.7
20260508121831 47 360 0.0 1.0 0.00 0.25 0.10 91 1009.8
20260508121336 47 360 0.0 0.0 0.00 0.25 0.10 91 1009.7
20260508120821 46 360 0.0 0.0 0.00 0.25 0.10 91 1009.8
20260508120329 46 360 0.0 0.0 0.00 0.25 0.10 91 1009.9
20260508115834 46 360 0.0 0.0 0.00 0.25 0.10 90 1009.8
20260508115336 46 360 0.0 0.0 0.00 0.25 0.10 90 1009.7
20260508114821 46 360 0.0 0.0 0.00 0.25 0.10 90 1009.6
20260508114330 46 360 0.0 0.0 0.00 0.25 0.10 90 1009.7
20260508113817 46 360 0.0 0.0 0.00 0.25 0.10 90 1009.7
20260508113324 46 360 0.0 0.0 0.00 0.25 0.10 90 1009.7
20260508112825 46 360 0.0 0.0 0.00 0.25 0.10 90 1009.8
20260508112353 46 360 0.0 0.0 0.00 0.25 0.10 90 1009.8
20260508111857 46 360 0.0 0.0 0.00 0.25 0.10 90 1009.8
20260508111319 46 360 0.0 0.0 0.00 0.25 0.10 90 1009.7
20260508110822 47 360 0.0 0.0 0.00 0.25 0.10 90 1009.9
20260508110345 47 360 0.0 0.0 0.00 0.25 0.10 90 1009.8
20260508105826 47 360 0.0 0.0 0.00 0.25 0.10 90 1009.6
20260508105350 47 360 0.0 0.0 0.00 0.25 0.10 90 1009.6
20260508104831 47 360 0.0 0.0 0.00 0.25 0.10 90 1009.7
20260508104332 47 360 0.0 0.0 0.00 0.25 0.10 90 1009.6
20260508103852 47 360 0.0 0.0 0.00 0.25 0.10 90 1009.6
20260508103355 47 360 0.0 0.0 0.00 0.25 0.10 89 1009.4
20260508102816 48 360 0.0 0.0 0.00 0.25 0.10 89 1009.3
20260508102319 48 360 0.0 0.0 0.00 0.25 0.10 90 1009.3
20260508101825 48 360 0.0 0.0 0.00 0.25 0.10 89 1009.4
20260508101331 48 360 0.0 0.0 0.00 0.25 0.10 90 1009.3
20260508100818 48 360 0.0 0.0 0.00 0.25 0.10 90 1009.4
20260508100324 48 360 0.0 1.0 0.00 0.25 0.10 90 1009.3
20260508095830 49 360 0.0 0.0 0.00 0.25 0.10 90 1009.3
20260508095337 49 360 0.0 1.0 0.00 0.25 0.10 90 1009.3
20260508094821 49 360 0.0 1.0 0.00 0.25 0.10 90 1009.3
20260508094328 49 360 0.0 0.0 0.00 0.25 0.10 90 1009.4
20260508093855 49 360 0.0 0.0 0.00 0.25 0.10 90 1009.4
20260508093317 49 360 0.0 0.0 0.00 0.25 0.10 90 1009.4
20260508092819 49 360 0.0 1.0 0.00 0.25 0.10 90 1009.5
20260508092326 49 360 0.0 1.0 0.00 0.25 0.10 90 1009.5
20260508091827 49 360 0.0 0.0 0.00 0.25 0.10 90 1009.5
20260508091330 49 360 0.0 0.0 0.00 0.25 0.10 89 1009.5
20260508090834 49 360 0.0 0.0 0.00 0.25 0.10 89 1009.5
20260508090334 49 360 0.0 1.0 0.00 0.25 0.10 89 1009.6
20260508085836 50 360 0.0 1.0 0.00 0.25 0.10 89 1009.7
20260508085319 50 360 0.0 0.0 0.00 0.25 0.10 89 1009.7
20260508084824 50 360 0.0 0.0 0.00 0.25 0.10 90 1009.7
20260508084348 50 360 0.0 0.0 0.00 0.25 0.10 90 1009.7
20260508083831 50 360 0.0 0.0 0.00 0.25 0.10 90 1009.7
20260508083332 50 360 0.0 0.0 0.00 0.25 0.10 90 1009.7
20260508082833 51 360 0.0 1.0 0.00 0.25 0.10 89 1009.8
20260508082355 51 360 0.0 1.0 0.00 0.25 0.10 90 1009.8
20260508081819 51 360 0.0 0.0 0.00 0.25 0.10 90 1009.8
20260508081326 51 360 0.0 0.0 0.03 0.25 0.10 90 1009.9
20260508080856 51 360 0.0 0.0 0.04 0.25 0.10 90 1009.8
20260508080341 51 360 0.0 0.0 0.04 0.25 0.10 90 1009.9
20260508075826 51 360 0.0 0.0 0.05 0.25 0.10 90 1010.0
20260508075332 51 360 0.0 0.0 0.05 0.25 0.10 90 1010.2
20260508074818 51 360 0.0 0.0 0.05 0.25 0.10 90 1010.2
20260508074326 51 360 0.0 1.0 0.05 0.25 0.10 89 1010.3
20260508073833 51 360 0.0 2.0 0.05 0.25 0.10 90 1010.2
20260508073319 51 360 0.0 0.0 0.05 0.25 0.10 89 1010.3
20260508072846 51 360 0.0 0.0 0.05 0.25 0.10 89 1010.4
20260508072325 51 360 0.0 0.0 0.05 0.25 0.10 89 1010.5
20260508071828 51 360 0.0 0.0 0.06 0.25 0.10 89 1010.6
20260508071330 51 360 0.0 0.0 0.04 0.22 0.07 89 1010.9
20260508070834 51 360 0.0 1.0 0.03 0.21 0.06 89 1010.9
20260508070317 51 360 0.0 2.0 0.03 0.21 0.06 89 1010.7
20260508065843 51 360 0.0 2.0 0.02 0.20 0.05 89 1010.7
20260508065346 51 360 0.0 1.0 0.02 0.20 0.05 89 1010.5
20260508064850 51 360 0.0 1.0 0.02 0.20 0.05 89 1010.6
20260508064332 51 360 0.0 1.0 0.03 0.20 0.05 89 1010.6
20260508063837 51 360 0.0 0.0 0.03 0.20 0.05 89 1010.8
20260508063321 51 360 0.0 0.0 0.05 0.20 0.05 89 1010.9
20260508062824 51 360 0.0 0.0 0.05 0.20 0.05 89 1011.1
20260508062323 51 360 0.0 1.0 0.05 0.20 0.05 89 1011.1
20260508061826 51 360 0.0 2.0 0.04 0.19 0.04 89 1011.2
20260508061330 51 360 1.0 2.0 0.03 0.18 0.03 89 1011.4
20260508060817 51 360 0.0 1.0 0.03 0.18 0.03 89 1011.4
20260508060320 51 360 0.0 1.0 0.03 0.18 0.03 89 1011.3
20260508055828 51 360 0.0 0.0 0.03 0.18 0.03 89 1011.1
20260508055336 51 360 0.0 0.0 0.03 0.18 0.03 89 1011.0
20260508054822 51 360 0.0 0.0 0.03 0.18 0.03 89 1011.0
20260508054327 51 360 0.0 0.0 0.02 0.17 0.02 89 1011.2
20260508053833 51 360 0.0 0.0 0.02 0.17 0.02 88 1011.4
20260508053318 51 360 0.0 0.0 0.01 0.15 0.00 88 1011.3
20260508052824 50 360 0.0 0.0 0.01 0.15 0.00 88 1011.0
20260508052326 51 360 0.0 0.0 0.01 0.15 0.15 88 1010.8
20260508051829 50 360 0.0 0.0 0.01 0.15 0.15 88 1011.0
20260508051334 50 360 0.0 0.0 0.01 0.15 0.15 88 1011.0
20260508050817 50 360 0.0 1.0 0.01 0.15 0.15 88 1010.9
20260508050322 50 360 0.0 1.0 0.01 0.15 0.15 88 1010.9
20260508045835 51 360 0.0 0.0 0.01 0.15 0.15 88 1011.2
20260508045318 51 360 0.0 0.0 0.02 0.15 0.15 87 1011.1
20260508044822 51 360 0.0 0.0 0.02 0.15 0.15 87 1010.9
20260508044327 51 360 0.0 1.0 0.02 0.15 0.15 87 1011.0
20260508043850 51 360 0.0 1.0 0.02 0.15 0.15 87 1011.1
20260508043333 51 360 0.0 1.0 0.01 0.14 0.14 86 1011.2
20260508042837 51 360 0.0 1.0 0.01 0.14 0.14 86 1010.8
20260508042336 51 360 0.0 0.0 0.01 0.14 0.14 86 1011.1
20260508041818 51 360 0.0 1.0 0.01 0.14 0.14 85 1010.9
20260508041321 51 360 0.0 1.0 0.01 0.14 0.14 85 1010.8
20260508040828 51 360 0.0 1.0 0.01 0.14 0.14 84 1010.7
20260508040334 52 360 0.0 2.0 0.01 0.14 0.14 83 1010.8
20260508035821 52 360 0.0 2.0 0.01 0.14 0.14 83 1010.7
20260508035327 52 360 0.0 0.0 0.00 0.13 0.13 81 1011.0
20260508034829 52 360 0.0 0.0 0.00 0.13 0.13 80 1011.0
20260508034334 51 360 0.0 1.0 0.00 0.13 0.13 81 1010.6
20260508033819 51 360 0.0 1.0 0.00 0.13 0.13 81 1010.5
20260508033326 51 360 0.0 1.0 0.00 0.13 0.13 82 1010.5
20260508032834 51 360 0.0 1.0 0.00 0.13 0.13 83 1010.5
20260508032318 51 360 0.0 0.0 0.00 0.13 0.13 83 1010.6
20260508031825 51 360 0.0 0.0 0.00 0.13 0.13 83 1010.7
20260508031331 52 360 0.0 0.0 0.00 0.13 0.13 82 1010.6
20260508030855 52 360 0.0 0.0 0.00 0.13 0.13 82 1010.7
20260508030337 52 360 0.0 1.0 0.00 0.13 0.13 82 1010.6
20260508025817 52 360 0.0 0.0 0.00 0.13 0.13 82 1010.6
20260508025321 52 360 0.0 0.0 0.00 0.13 0.13 82 1010.7
20260508024845 51 360 0.0 1.0 0.00 0.13 0.13 81 1010.5
20260508024330 51 360 0.0 1.0 0.00 0.13 0.13 81 1010.5
20260508023828 52 360 0.0 1.0 0.00 0.13 0.13 82 1010.5
20260508023330 52 360 0.0 0.0 0.00 0.13 0.13 82 1010.4
20260508022834 52 360 0.0 0.0 0.00 0.13 0.13 82 1010.4
20260508022316 52 360 0.0 0.0 0.00 0.13 0.13 81 1010.4
20260508021844 52 360 0.0 0.0 0.00 0.13 0.13 82 1010.4
20260508021330 52 360 0.0 0.0 0.00 0.13 0.13 81 1010.3
20260508020857 52 360 0.0 0.0 0.00 0.13 0.13 81 1010.4
20260508020323 53 360 0.0 1.0 0.00 0.13 0.13 82 1010.2
20260508015829 52 360 0.0 1.0 0.01 0.13 0.13 82 1010.3
20260508015335 53 360 0.0 0.0 0.01 0.13 0.13 82 1010.3
20260508014822 53 360 0.0 1.0 0.01 0.13 0.13 81 1010.2
20260508014328 53 360 0.0 1.0 0.01 0.13 0.13 82 1010.0
20260508013834 53 360 0.0 0.0 0.01 0.13 0.13 81 1010.0
20260508013321 53 360 0.0 0.0 0.02 0.13 0.13 81 1009.9
20260508012844 54 360 0.0 0.0 0.02 0.13 0.13 81 1009.9
20260508012330 54 360 0.0 0.0 0.02 0.13 0.13 80 1010.0
20260508011849 54 360 0.0 1.0 0.02 0.13 0.13 79 1010.0
20260508011331 55 360 0.0 1.0 0.02 0.13 0.13 78 1009.9
20260508010834 55 360 0.0 1.0 0.02 0.13 0.13 77 1009.8
20260508010358 56 360 0.0 1.0 0.02 0.13 0.13 76 1009.9
20260508005841 57 119 0.0 1.0 0.01 0.12 0.12 74 1009.9
20260508005324 58 111 0.0 1.0 0.01 0.12 0.12 71 1009.8
20260508004829 59 99 0.0 2.0 0.01 0.12 0.12 66 1009.7
20260508004347 61 126 0.0 8.0 0.01 0.12 0.12 65 1010.0
20260508003830 61 157 1.0 8.0 0.01 0.12 0.12 59 1010.0
20260508003333 62 28 1.0 4.0 0.00 0.11 0.11 55 1010.2
20260508002834 63 123 0.0 2.0 0.00 0.11 0.11 50 1009.9
20260508002317 63 96 0.0 1.0 0.00 0.11 0.11 50 1009.9
20260508001845 63 96 0.0 1.0 0.00 0.11 0.11 48 1009.7
20260508001332 64 96 0.0 1.0 0.00 0.11 0.11 48 1009.6
20260508000838 64 96 0.0 1.0 0.00 0.11 0.11 47 1009.6
20260508000324 64 96 0.0 4.0 0.00 0.11 0.11 47 1009.7
20260507235831 64 228 0.0 4.0 0.00 0.11 0.11 46 1009.6
20260507235334 65 242 1.0 4.0 0.00 0.11 0.11 44 1009.5
20260507234821 65 213 1.0 3.0 0.00 0.11 0.11 44 1009.6
20260507234326 65 238 1.0 2.0 0.00 0.11 0.11 44 1009.6
20260507233850 65 287 1.0 2.0 0.00 0.11 0.11 44 1009.6
20260507233334 65 232 1.0 3.0 0.00 0.11 0.11 44 1009.6
20260507232820 65 360 1.0 3.0 0.00 0.11 0.11 45 1009.6
20260507232326 65 360 1.0 6.0 0.00 0.11 0.11 45 1009.6
20260507231831 65 360 1.0 6.0 0.00 0.11 0.11 44 1009.7
20260507231334 65 360 0.0 4.0 0.00 0.11 0.11 45 1009.7
20260507230837 65 360 1.0 4.0 0.00 0.11 0.11 45 1009.7
20260507230319 65 298 1.0 3.0 0.00 0.11 0.11 44 1009.7
20260507225841 65 314 0.0 5.0 0.00 0.11 0.11 45 1009.7
20260507225324 65 205 2.0 5.0 0.00 0.11 0.11 43 1009.7
20260507224848 65 328 1.0 4.0 0.00 0.11 0.11 43 1009.7
20260507224327 65 277 1.0 7.0 0.00 0.11 0.11 44 1009.9
20260507223828 65 296 2.0 6.0 0.00 0.11 0.11 44 1009.8
20260507223325 66 341 2.0 6.0 0.00 0.11 0.11 43 1009.9
20260507222831 65 360 1.0 6.0 0.00 0.11 0.11 44 1009.9
20260507222335 65 360 3.0 9.0 0.00 0.11 0.11 42 1009.9
20260507221838 65 360 3.0 9.0 0.00 0.11 0.11 41 1010.0
20260507221321 66 360 1.0 8.0 0.00 0.11 0.11 42 1010.2
20260507220823 65 360 2.0 5.0 0.00 0.11 0.11 43 1010.0
20260507220357 65 340 2.0 7.0 0.00 0.11 0.11 43 1010.0
20260507215836 65 288 3.0 7.0 0.00 0.11 0.11 42 1010.0
20260507215320 65 195 3.0 7.0 0.00 0.11 0.11 42 1010.1
20260507214845 65 360 2.0 7.0 0.00 0.11 0.11 42 1010.1
20260507214329 65 360 1.0 7.0 0.00 0.11 0.11 43 1010.2
20260507213834 65 360 3.0 5.0 0.00 0.11 0.11 44 1010.2
20260507213356 65 360 2.0 5.0 0.00 0.11 0.11 43 1010.2
20260507212821 65 320 1.0 8.0 0.00 0.11 0.11 45 1010.2
20260507212329 65 252 2.0 8.0 0.00 0.11 0.11 44 1010.2
20260507211835 65 210 2.0 7.0 0.00 0.11 0.11 43 1010.2
20260507211319 64 360 3.0 8.0 0.00 0.11 0.11 43 1010.3
20260507210827 64 360 3.0 8.0 0.00 0.11 0.11 44 1010.3
20260507210331 64 252 2.0 10.0 0.00 0.11 0.11 44 1010.3
20260507205817 63 279 2.0 10.0 0.00 0.11 0.11 46 1010.3
20260507205324 63 234 4.0 9.0 0.00 0.11 0.11 43 1010.4
20260507204829 63 202 2.0 8.0 0.00 0.11 0.11 46 1010.4
20260507204333 62 360 2.0 10.0 0.00 0.11 0.11 47 1010.5
20260507203827 62 337 4.0 10.0 0.00 0.11 0.11 48 1010.5
20260507203324 62 257 4.0 8.0 0.00 0.11 0.11 47 1010.6
20260507202836 61 212 1.0 9.0 0.00 0.11 0.11 53 1010.8
20260507202318 61 307 3.0 9.0 0.00 0.11 0.11 53 1011.0
20260507201822 60 107 1.0 9.0 0.00 0.11 0.11 52 1011.0
20260507201326 60 211 2.0 6.0 0.00 0.11 0.11 56 1011.1
20260507200828 60 283 2.0 8.0 0.00 0.11 0.11 52 1011.1
20260507200349 60 313 3.0 8.0 0.00 0.11 0.11 52 1011.3
20260507195831 60 203 4.0 10.0 0.00 0.11 0.11 51 1011.3
20260507195358 61 272 3.0 10.0 0.00 0.11 0.11 51 1011.1
20260507194843 62 360 1.0 12.0 0.00 0.11 0.11 49 1011.3
20260507194350 62 360 4.0 12.0 0.00 0.11 0.11 51 1011.3
20260507193834 61 360 1.0 10.0 0.00 0.11 0.11 56 1011.6
20260507193321 61 360 3.0 10.0 0.00 0.11 0.11 53 1011.7
20260507192828 61 360 2.0 8.0 0.00 0.11 0.11 53 1011.7
20260507192336 61 360 3.0 9.0 0.00 0.11 0.11 53 1011.7
20260507191822 61 360 3.0 11.0 0.00 0.11 0.11 52 1011.5
20260507191348 61 360 4.0 10.0 0.00 0.11 0.11 54 1011.6
20260507190827 60 269 1.0 10.0 0.00 0.11 0.11 58 1011.6
20260507190355 60 259 2.0 10.0 0.00 0.11 0.11 58 1011.8
20260507185819 59 237 2.0 10.0 0.00 0.11 0.11 62 1011.9
20260507185334 59 286 2.0 7.0 0.00 0.11 0.11 63 1011.8
20260507184830 59 264 2.0 7.0 0.00 0.11 0.11 64 1011.8
20260507184345 58 238 2.0 6.0 0.00 0.11 0.11 66 1011.9
20260507183833 58 172 1.0 7.0 0.00 0.11 0.11 64 1011.9
20260507183317 57 241 2.0 7.0 0.00 0.11 0.11 66 1012.1
20260507182837 57 277 1.0 5.0 0.00 0.11 0.11 71 1012.1
20260507182316 56 99 1.0 4.0 0.00 0.11 0.11 73 1011.8
20260507181822 56 162 2.0 4.0 0.00 0.11 0.11 73 1012.1
20260507181328 55 80 1.0 4.0 0.00 0.11 0.11 76 1012.2
20260507180855 54 187 1.0 3.0 0.00 0.11 0.11 79 1012.2
20260507180318 53 24 0.0 2.0 0.00 0.11 0.11 80 1012.3
20260507175825 53 186 0.0 1.0 0.00 0.11 0.11 79 1012.5
20260507175326 52 360 0.0 2.0 0.00 0.11 0.11 81 1012.6
20260507174833 52 360 0.0 3.0 0.00 0.11 0.11 81 1012.8
20260507174339 51 360 0.0 3.0 0.01 0.11 0.11 81 1013.0
20260507173825 51 360 1.0 2.0 0.01 0.11 0.11 82 1013.1
20260507173329 51 360 0.0 2.0 0.01 0.11 0.11 83 1013.3
20260507172836 50 360 0.0 3.0 0.02 0.11 0.11 82 1013.3
20260507172324 50 360 0.0 5.0 0.02 0.11 0.11 81 1013.1
20260507171827 50 360 1.0 5.0 0.03 0.11 0.11 82 1013.4
20260507171330 50 360 0.0 3.0 0.03 0.11 0.11 82 1013.7
20260507170833 50 360 0.0 3.0 0.04 0.11 0.11 83 1013.5
20260507170316 50 360 0.0 3.0 0.04 0.11 0.11 82 1013.7
20260507165818 50 360 0.0 4.0 0.04 0.11 0.11 81 1013.4
20260507165323 50 360 0.0 12.0 0.04 0.11 0.11 80 1013.7
20260507164828 50 360 2.0 12.0 0.04 0.11 0.11 80 1013.5
20260507164331 50 360 0.0 6.0 0.03 0.10 0.10 81 1013.6
20260507163829 49 360 1.0 6.0 0.03 0.10 0.10 81 1013.9
20260507163333 49 360 1.0 5.0 0.03 0.10 0.10 81 1014.0
20260507162836 49 360 0.0 2.0 0.02 0.09 0.09 82 1014.2
20260507162318 49 360 0.0 2.0 0.02 0.09 0.09 85 1014.2
20260507161824 49 360 0.0 0.0 0.01 0.08 0.08 85 1014.1
20260507161350 49 360 0.0 2.0 0.00 0.07 0.07 84 1013.9
20260507160817 49 360 0.0 2.0 0.00 0.07 0.07 83 1013.9
20260507160322 49 360 0.0 2.0 0.03 0.07 0.07 83 1013.5
20260507155829 48 360 0.0 4.0 0.05 0.07 0.07 85 1013.1
20260507155335 48 360 1.0 4.0 0.06 0.07 0.07 84 1013.3
20260507154821 48 360 0.0 1.0 0.06 0.07 0.07 85 1013.4
20260507154328 47 360 0.0 3.0 0.06 0.07 0.07 85 1013.3
20260507153836 47 360 0.0 3.0 0.07 0.07 0.07 84 1013.3
20260507153321 47 360 0.0 2.0 0.07 0.07 0.07 84 1013.2
20260507152828 47 360 0.0 4.0 0.07 0.07 0.07 85 1013.2
20260507152350 47 360 2.0 4.0 0.07 0.07 0.07 85 1013.2
20260507151832 47 360 0.0 3.0 0.07 0.07 0.07 83 1013.4